www.pogodaiklimat.ru

Погода и климат >> Архив погоды >> Кот-д'Ивуар >> Yamoussoukro


ПОГОДА в Yamoussoukro

  • Прогноз погоды в Yamoussoukro
  • Монитор погоды в Yamoussoukro
  • Климат города

АРХИВ ПОГОДЫ в Yamoussoukro

Время (UTC), дата Ветер
(напр.,м/с)
 
Видим.   Явления Облачность Т
(С)
Тd
(С)
f
(%)
Тe
(С)
Тes
(С)
Комфортность P
(гПа)
Po
(гПа)
Тmin
(С)
Tmax
(С)
R
(мм)
R24
(мм)
S
(см)
03 10.10 ЮЗ 3 10 км 9/9 180 м
[Sc]
+23.5 +22.8 96 +31 +31 очень
душно
1008.5 985.5
09 10.10 З 3 10 км {дождь} 9/8 300 м
[Sc Ac As]
+22.2 +21.5 96 +29 +30 очень
душно
1011.7 988.5
12 10.10 ЮЗ 2 10 км {дождь} 8/6 400 м
[Cu med, cong Ac trans]
+27.6 +23.2 77 +37 +43 очень
душно
1009.7 987.0 5
15 10.10 ЮЗ 2 10 км 6/3 450 м
[Cu med, cong Ac trans]
+31.3 +24.6 68 +44 +50 опасность
перегрева
1006.6 984.3
18 10.10 ЮЗ 2 10 км 8/3 400 м
[Cb cap Ci sp]
+28.8 +24.9 79 +41 +41 опасность
перегрева
1006.8 984.3 +32.5 5
21 10.10 СЗ 2 10 км 8/5 330 м
[Sc Ac As]
+24.7 +23.3 92 +33 +33 очень
душно
1011.0 988.0
00 11.10 ЮЗ 1 10 км 8/5 300 м
[Sc Ac trans]
+24.0 +22.8 93 +32 +32 очень
душно
1011.6 988.6
03 11.10 ЮЗ 1 10 км 9/5 300 м
[Sc Ac trans]
+23.4 +22.8 96 +33 +33 очень
душно
1010.3 987.7
06 11.10 штиль 0 8000 м 10/10 300 м
[Sc]
+23.3 +22.7 96 +32 +32 очень
душно
1009.9 986.9 +23.0 5
09 11.10 ЮЗ 2 10 км 10/10 330 м
[Cu med, cong]
+25.0 +23.4 91 +34 +34 очень
душно
1012.3 989.4
12 11.10 ЮЗ 2 10 км 8/8 400 м
[Cu med, cong]
+29.6 +23.4 69 +40 +44 очень
душно
1010.6 988.0
15 11.10 ЮЗ 2 10 км 6/6 450 м
[Cu med, cong]
+31.6 +23.6 63 +43 +48 опасность
перегрева
1007.5 985.2
18 11.10 С 2 10 км гроза без осадков 4/3 330 м
[Cb cap]
+26.2 +23.1 83 +35 +35 очень
душно
1008.7 985.9 +32.7
21 11.10 ЮЗ 2 10 км гроза без осадков {дождь} 5/5 300 м
[Cb cap]
+22.7 +22.2 97 +31 +31 очень
душно
1011.6 988.5
00 12.10 ЮЗ 2 10 км {гроза, дождь} 5/5 300 м
[Sc]
+23.0 +22.6 98 +32 +32 очень
душно
1012.5 989.4 6
03 12.10 штиль 0 8000 м 6/6 300 м
[Sc]
+22.6 +22.4 99 +31 +31 очень
душно
1011.0 987.9
06 12.10 З 2 8000 м 10/10 300 м
[Sc]
+22.6 +22.6 100 +31 +31 очень
душно
1012.0 988.9 +22.1 6
09 12.10 ЮЗ 2 10 км 10/10 330 м
[Cu med, cong]
+25.1 +23.3 90 +34 +34 очень
душно
1013.9 990.6
12 12.10 ЮЗ 2 10 км 9/9 400 м
[Cu med, cong]
+28.2 +23.6 76 +38 +41 очень
душно
1012.2 989.5
15 12.10 ЮЗ 3 10 км 8/8 450 м
[Cu med, cong Ac trans]
+30.8 +23.2 64 +41 +43 опасность
перегрева
1008.6 986.5
18 12.10 ЮЗ 2 10 км 4/1 450 м
[Cu med, cong Ci sp]
+28.6 +24.0 76 +40 +40 очень
душно
1008.7 986.2 +32.0
21 12.10 штиль 0 10 км ясно +24.1 +23.6 97 +33 +33 очень
душно
1011.2 988.2
00 13.10 штиль 0 10 км 3/3 300 м
[Sc]
+23.1 +22.8 98 +32 +32 очень
душно
1012.2 989.1
03 13.10 Ю 2 8000 м 5/5 300 м
[Sc]
+23.8 +23.6 99 +32 +32 очень
душно
1009.9 987.8
06 13.10 ЮВ 3 6000 м гроза без осадков {дождь} 9/9 300 м
[Cb cap]
+22.7 +21.7 94 +30 +30 очень
душно
1012.3 989.2 +22.5 0.2
09 13.10 штиль 0 10 км в посл. час гроза {дождь} 10/8 450 м
[Cu med, cong Ac As]
+24.0 +22.5 91 +31 +32 очень
душно
1012.1 989.1
12 13.10 ЮЗ 2 10 км {гроза, дождь} 8/5 400 м
[Cu med, cong Ac trans Ci sp]
+29.0 +23.3 71 +39 +46 очень
душно
1010.1 987.5 7
15 13.10 Ю 3 10 км 9/3 400 м
[Cu med, cong Ac trans]
+30.6 +22.8 63 +40 +44 очень
душно
1008.0 985.6
18 13.10 ЮЗ 2 10 км 5/1 330 м
[Sc Ac trans]
+26.8 +22.8 79 +36 +36 очень
душно
1008.7 986.0 +32.0 7
03 14.10 штиль 0 10 км 3/0
[Ac trans]
+22.8 +22.2 96 +31 +31 очень
душно
1010.7 987.5
06 14.10 штиль 0 4000 м дымка 5/5 120 м
[St Ac trans]
+22.2 +22.1 99 +29 +29 очень
душно
1010.6 987.5 +21.6 7
09 14.10 Ю 3 10 км 4/4 400 м
[Cu med, cong]
+26.4 +23.0 82 +35 +39 очень
душно
1012.0 989.2
12 14.10 Ю 3 10 км {дождь} 9/6 400 м
[Cu med, cong Ac As]
+28.5 +22.6 70 +37 +41 очень
душно
1010.7 988.1 3
15 14.10 ЮЗ 2 10 км 8/4 450 м
[Cu med, cong Ac trans]
+30.5 +22.3 62 +40 +44 очень
душно
1007.7 985.2
18 14.10 штиль 0 10 км 8/5 450 м
[Cu med, cong Ac trans Ci sp]
+28.3 +24.0 78 +39 +39 очень
душно
1008.1 985.5 +32.2 5
21 14.10 штиль 0 10 км ясно +24.5 +23.2 92 +33 +33 очень
душно
1011.3 988.3
00 15.10 ЮЗ 2 10 км 5/5 300 м
[Sc]
+23.8 +22.5 92 +31 +31 очень
душно
1011.5 968.5
03 15.10 штиль 0 8000 м 8/8 300 м
[Sc]
+23.2 +22.4 95 +32 +32 очень
душно
1010.6 987.5
06 15.10 штиль 0 6000 м 8/6 300 м
[Sc Ac trans]
+22.7 +22.5 99 +31 +31 очень
душно
1011.3 992.2 +22.4 5
09 15.10 ЮЗ 3 10 км 10/10 330 м
[Cu med, cong]
+24.9 +22.8 88 +33 +33 очень
душно
1013.0 990.1
12 15.10 ЮЗ 2 10 км 10/8 400 м
[Cu med, cong Ac As]
+28.8 +23.5 73 +39 +40 очень
душно
1011.4 988.8
15 15.10 З 2 10 км 8/8 450 м
[Cb cap]
+31.0 +23.1 63 +41 +44 опасность
перегрева
1008.1 985.7
18 15.10 ЮЗ 2 10 км 8/8 400 м
[Cb cap]
+27.8 +23.7 78 +38 +38 очень
душно
1009.2 986.6 +32.2
21 15.10 Ю 2 10 км гроза без осадков 6/6 300 м
[Cb cap]
+23.6 +22.6 94 +31 +31 очень
душно
1012.7 989.7
00 16.10 штиль 0 10 км {гроза} 9/8 300 м
[Sc Ac As]
+23.7 +23.5 99 +32 +32 очень
душно
1013.2 990.2
09 16.10 ЮЗ 3 10 км 8/6 330 м
[Cu med, cong Ac As]
+26.5 +23.3 83 +36 +38 очень
душно
1014.2 991.3
12 16.10 штиль 0 10 км 9/6 400 м
[Cu med, cong Ac trans]
+29.4 +23.1 69 +39 +45 очень
душно
1012.6 970.2
15 16.10 ЮЗ 2 10 км 5/5 450 м
[Cu med, cong]
+30.4 +23.2 65 +41 +46 опасность
перегрева
1010.1 987.6
18 16.10 С 2 10 км 1/1 400 м
[Cb cap]
+28.0 +23.5 77 +38 +38 очень
душно
1010.7 988.0 +33.0
21 16.10 штиль 0 10 км зарница 3/3 300 м
[]
+24.0 +23.0 94 +32 +32 очень
душно
1013.1 990.0
00 17.10 штиль 0 8000 м 5/5 300 м
[Sc]
+22.8 +22.6 99 +31 +31 очень
душно
1013.6 990.4

 

Местоположение метеостанции Yamoussoukro (Кот-д'Ивуар): широта 6.90 долгота -5.35 высота над уровнем моря 213 м.

В архиве по умолчанию представлена погода в Yamoussoukro за последнюю неделю. Архивные данные за месяц целиком и за предыдущие месяцы, начиная с января 2011 года, Вы можете получить, выбрав интересующий диапазон дат из раскрывающегося списка и нажав кнопку "Ввод!".

Внимание! Время в таблицах - всемирное. Для получения местного времени необходимо прибавить поправку, которая в Yamoussoukro равна 0 ч.

Смотрите также архив погоды в соседних городах и на ближайших метеорологических станциях:

Погода в Dimbokro (Кот-д'Ивуар) (77 км)
Погода в Bouake (Кот-д'Ивуар) (98 км)
Погода в Gagnoa (Кот-д'Ивуар) (108 км)
Погода в Daloa (Кот-д'Ивуар) (124 км)
Погода в Sassandra (Кот-д'Ивуар) (231 км)
Погода в Abidjan (Кот-д'Ивуар) (242 км)
Погода в Man (Кот-д'Ивуар) (245 км)
Погода в San Pedro (Кот-д'Ивуар) (279 км)
Погода в Korhogo (Кот-д'Ивуар) (282 км)
Погода в Adiake (Кот-д'Ивуар) (288 км)

Пояснения к столбцам:

Ветер - указаны скорость ветра в м/с - средняя за 10 мин, порывы в срок и между сроками (в фигурных скобках) и направление, откуда дует ветер: С - северный, СВ - северо-восточный, В - восточный, ЮВ - юго-восточный, Ю - южный, ЮЗ - юго-западный, З - западный, СЗ - северо-западный.
Видимость - горизонтальная дальность видимости в метрах или километрах. При видимости от 1 до 10 км при отсутствии осадков обычно наблюдается дымка, при ухудшении видимости до 1 км и менее - туман. В сухую погоду видимость может ухудшаться дымом, пылью или мглою.
Явления - указаны атмосферные явления, наблюдавшиеся в срок или в последний час перед сроком; фигурными скобками обозначены явления, наблюдавшиеся между сроками (за 1-3 часа до срока); квадратными скобками обозначены град или гололедные отложения с указанием их диаметра в мм.
Облачность - указаны через наклонную черту общая и нижняя облачность в баллах и высота нижней границы облаков в метрах; квадратными скобками обозначены формы облаков: Ci - перистые, Cs - перисто-слоистые, Cc - перисто-кучевые, Ac - высококучевые, As - высокослоистые, Sc - слоисто-кучевые, Ns - слоисто-дождевые, Cu - кучевые, Cb - кучево-дождевые. Подробнее классификацию облаков см. в Атласе облаков (PDF).
T - Температура воздуха - температура, измеренная на высоте 2 м над землей.
Td - Температура точки росы - температура, при понижении до которой содержащийся в воздухе водяной пар достигнет насыщения.
f - Относительная влажность воздуха - влажноcть воздуха, измеренная на высоте 2 м над землей.
Te - Эффективная температура - температура, которую ощущает одетый по сезону человек в тени. Характеристика душности погоды. При расчете учитывается влияние влажности воздуха и скорости ветра на теплоощущения человека.
Tes - Эффективная температура на солнце - температура, которую ощущает человек, с поправкой на солнечный нагрев. Характеристика знойности погоды. Зависит от высоты солнца над горизонтом, облачности и скорости ветра. Ночью, в пасмурную погоду, а также при ветре 12 м/с и более поправка равна нулю.
P - Атмосферное давление - приведенное к уровню моря атмосферное давление.
Po - Атмосферное давление - измеренное на уровне метеостанции атмосферное давление.
Tmin - Минимальная температура - минимум температуры воздуха на высоте 2 м над землей.
Tmax - Максимальная температура - максимум температуры воздуха на высоте 2 м над землей.
R - Количество осадков - Количество выпавших осадков за период времени, мм. При наведении курсора мыши на число - период времени, за который выпало указанное количество осадков.
R24 - Количество осадков - Количество выпавших осадков за 24 часа, мм.
S - Снежный покров - Высота снежного покрова, см. При наведении курсора мыши на число - состояние снежного покрова и степень покрытия местности в баллах.